When you browse on this site, cookies collect data to enhance your experience and personalize the content and advertising you see.
Visit our Privacy Policy to learn more. By continuing to use the site, you agree to this use of cookies and data.
  • In Spain
  • List of Countries
  • For 7 days
  • Water Temperature
  • Satellite Maps
  • Weather Map
  • Weather Widgets
  • user-avatar
    Login

    Hourly Weather Eisenstadt

    Today, 17 July, Wednesday

    Time Temperature Precipitation Wind Pressure Humidity
    00:00 +15°C° 0 mm 1 mps 721 mmHg 77%
    01:00 +15°C° 0 mm 1 mps 721 mmHg 78%
    02:00 +15°C° 0 mm 1 mps 721 mmHg 80%
    03:00 +14°C° 0 mm 1 mps 721 mmHg 83%
    04:00 +14°C° 0 mm 1 mps 721 mmHg 86%
    05:00 +15°C° 0 mm 1 mps 721 mmHg 80%
    06:00 +18°C° 0 mm 1 mps 721 mmHg 74%
    07:00 +20°C° 0 mm 1 mps 721 mmHg 68%
    08:00 +21°C° 0 mm 1 mps 721 mmHg 64%
    09:00 +22°C° 0 mm 1 mps 721 mmHg 60%
    10:00 +24°C° 0 mm 1 mps 721 mmHg 56%
    11:00 +24°C° 0.1 mm 1 mps 721 mmHg 55%
    12:00 +25°C° 0.1 mm 1 mps 721 mmHg 55%
    13:00 +26°C° 0.1 mm 1 mps 721 mmHg 55%
    14:00 +25°C° 0.8 mm 1 mps 720 mmHg 59%
    15:00 +25°C° 0.8 mm 1 mps 720 mmHg 63%
    16:00 +24°C° 0.8 mm 1 mps 720 mmHg 67%
    17:00 +23°C° 0.2 mm 1 mps 720 mmHg 70%
    18:00 +22°C° 0.2 mm 1 mps 720 mmHg 74%
    19:00 +19°C° 0.2 mm 0 mps 719 mmHg 78%
    20:00 +18°C° 0.8 mm 0 mps 720 mmHg 81%
    21:00 +17°C° 0.8 mm 0 mps 720 mmHg 84%
    22:00 +16°C° 0.8 mm 0 mps 720 mmHg 88%
    23:00 +15°C° 0.2 mm 0 mps 720 mmHg 88%

    Tomorrow, 18 July, Thursday

    Time Temperature Precipitation Wind Pressure Humidity
    00:00 +16°C° 0.2 mm 1 mps 720 mmHg 89%
    01:00 +16°C° 0.2 mm 1 mps 720 mmHg 89%
    02:00 +16°C° 0.1 mm 1 mps 720 mmHg 90%
    03:00 +15°C° 0.1 mm 1 mps 720 mmHg 90%
    04:00 +15°C° 0.1 mm 1 mps 720 mmHg 91%
    05:00 +16°C° 0 mm 1 mps 720 mmHg 87%
    06:00 +18°C° 0 mm 1 mps 720 mmHg 84%
    07:00 +19°C° 0 mm 1 mps 720 mmHg 80%
    08:00 +21°C° 0.1 mm 1 mps 721 mmHg 74%
    09:00 +22°C° 0.1 mm 1 mps 721 mmHg 67%
    10:00 +24°C° 0.1 mm 1 mps 721 mmHg 61%
    11:00 +25°C° 0.5 mm 1 mps 721 mmHg 59%
    12:00 +25°C° 0.5 mm 1 mps 721 mmHg 58%
    13:00 +26°C° 0.5 mm 1 mps 721 mmHg 57%
    14:00 +26°C° 0.6 mm 1 mps 720 mmHg 56%
    15:00 +26°C° 0.6 mm 1 mps 720 mmHg 56%
    16:00 +25°C° 0.6 mm 1 mps 720 mmHg 55%
    17:00 +24°C° 0.1 mm 1 mps 720 mmHg 61%
    18:00 +23°C° 0.1 mm 2 mps 720 mmHg 67%
    19:00 +21°C° 0.1 mm 2 mps 720 mmHg 74%
    20:00 +20°C° 0 mm 2 mps 721 mmHg 74%
    21:00 +19°C° 0 mm 1 mps 721 mmHg 74%
    22:00 +18°C° 0 mm 1 mps 721 mmHg 74%
    23:00 +18°C° 0 mm 1 mps 721 mmHg 74%

    Day after tomorrow, 19 July, Friday

    Time Temperature Precipitation Wind Pressure Humidity
    00:00 +18°C° 0 mm 1 mps 721 mmHg 73%
    01:00 +18°C° 0 mm 1 mps 721 mmHg 72%
    02:00 +16°C° 0 mm 1 mps 721 mmHg 72%
    03:00 +16°C° 0 mm 1 mps 722 mmHg 72%
    04:00 +16°C° 0 mm 1 mps 722 mmHg 71%
    05:00 +19°C° 0 mm 1 mps 722 mmHg 69%
    06:00 +18°C° 0 mm 0 mps 722 mmHg 66%
    07:00 +20°C° 0 mm 0 mps 723 mmHg 63%
    08:00 +23°C° 0 mm 1 mps 723 mmHg 58%
    09:00 +25°C° 0 mm 1 mps 723 mmHg 53%
    10:00 +26°C° 0 mm 1 mps 723 mmHg 48%
    11:00 +27°C° 0.1 mm 2 mps 723 mmHg 48%
    12:00 +27°C° 0.1 mm 2 mps 723 mmHg 47%
    13:00 +27°C° 0.1 mm 2 mps 723 mmHg 47%
    14:00 +27°C° 0.2 mm 2 mps 723 mmHg 49%
    15:00 +27°C° 0.2 mm 2 mps 722 mmHg 50%
    16:00 +27°C° 0.2 mm 1 mps 722 mmHg 52%
    17:00 +26°C° 0.1 mm 1 mps 722 mmHg 58%
    18:00 +25°C° 0.1 mm 1 mps 722 mmHg 63%
    19:00 +23°C° 0.1 mm 1 mps 722 mmHg 69%
    20:00 +22°C° 0 mm 1 mps 722 mmHg 72%
    21:00 +21°C° 0 mm 1 mps 723 mmHg 74%
    22:00 +20°C° 0 mm 1 mps 723 mmHg 76%
    23:00 +20°C° 0.1 mm 1 mps 723 mmHg 78%

    20 July, Saturday

    Time Temperature Precipitation Wind Pressure Humidity
    00:00 +19°C° 0.1 mm 1 mps 723 mmHg 80%
    01:00 +19°C° 0.1 mm 1 mps 723 mmHg 82%
    02:00 +19°C° 0 mm 1 mps 723 mmHg 82%
    03:00 +18°C° 0 mm 1 mps 723 mmHg 82%
    04:00 +18°C° 0 mm 1 mps 723 mmHg 83%
    05:00 +20°C° 0 mm 1 mps 723 mmHg 78%
    06:00 +21°C° 0 mm 1 mps 723 mmHg 73%
    07:00 +23°C° 0 mm 1 mps 723 mmHg 68%
    08:00 +24°C° 0 mm 1 mps 724 mmHg 62%
    09:00 +26°C° 0 mm 1 mps 724 mmHg 56%
    10:00 +28°C° 0 mm 1 mps 724 mmHg 51%
    11:00 +28°C° 0 mm 2 mps 724 mmHg 48%
    12:00 +29°C° 0 mm 2 mps 724 mmHg 46%
    13:00 +30°C° 0 mm 3 mps 724 mmHg 44%
    14:00 +30°C° 0 mm 3 mps 724 mmHg 44%
    15:00 +30°C° 0 mm 3 mps 723 mmHg 45%
    16:00 +30°C° 0 mm 3 mps 723 mmHg 45%
    17:00 +29°C° 0 mm 2 mps 723 mmHg 52%
    18:00 +27°C° 0 mm 2 mps 723 mmHg 59%
    19:00 +25°C° 0 mm 1 mps 723 mmHg 66%
    20:00 +24°C° 0.1 mm 1 mps 724 mmHg 69%
    21:00 +24°C° 0.1 mm 1 mps 724 mmHg 71%
    22:00 +23°C° 0.1 mm 1 mps 725 mmHg 74%
    23:00 +22°C° 0 mm 1 mps 724 mmHg 74%

    21 July, Sunday

    Time Temperature Precipitation Wind Pressure Humidity
    00:00 +22°C° 0 mm 1 mps 724 mmHg 74%
    01:00 +22°C° 0 mm 1 mps 724 mmHg 74%
    02:00 +21°C° 0 mm 1 mps 725 mmHg 73%
    03:00 +21°C° 0 mm 1 mps 725 mmHg 72%
    04:00 +20°C° 0 mm 1 mps 725 mmHg 72%
    05:00 +22°C° 0 mm 1 mps 725 mmHg 69%
    06:00 +23°C° 0 mm 1 mps 725 mmHg 66%
    07:00 +23°C° 0 mm 0 mps 726 mmHg 63%
    08:00 +27°C° 0 mm 1 mps 726 mmHg 56%
    09:00 +29°C° 0 mm 1 mps 726 mmHg 49%
    10:00 +30°C° 0 mm 1 mps 727 mmHg 42%
    11:00 +31°C° 0 mm 1 mps 727 mmHg 40%
    12:00 +32°C° 0 mm 2 mps 726 mmHg 39%
    13:00 +32°C° 0 mm 2 mps 726 mmHg 37%
    14:00 +32°C° 0 mm 2 mps 726 mmHg 38%
    15:00 +31°C° 0 mm 2 mps 726 mmHg 40%
    16:00 +31°C° 0 mm 2 mps 726 mmHg 42%
    17:00 +29°C° 0 mm 1 mps 726 mmHg 48%
    18:00 +28°C° 0 mm 1 mps 726 mmHg 54%
    19:00 +26°C° 0 mm 1 mps 726 mmHg 60%
    20:00 +25°C° 0.1 mm 1 mps 726 mmHg 63%
    21:00 +24°C° 0.1 mm 1 mps 726 mmHg 66%
    22:00 +22°C° 0.1 mm 1 mps 726 mmHg 69%
    23:00 +22°C° 0 mm 1 mps 726 mmHg 70%

    22 July, Monday

    Time Temperature Precipitation Wind Pressure Humidity
    00:00 +22°C° 0 mm 1 mps 726 mmHg 72%
    01:00 +21°C° 0 mm 1 mps 726 mmHg 73%
    02:00 +21°C° 0 mm 1 mps 726 mmHg 75%
    03:00 +20°C° 0 mm 1 mps 726 mmHg 78%
    04:00 +19°C° 0 mm 2 mps 726 mmHg 80%
    05:00 +20°C° 0 mm 2 mps 726 mmHg 76%
    06:00 +23°C° 0 mm 2 mps 726 mmHg 71%
    07:00 +24°C° 0 mm 2 mps 727 mmHg 66%
    08:00 +25°C° 0.1 mm 2 mps 727 mmHg 63%
    09:00 +26°C° 0.1 mm 2 mps 727 mmHg 59%
    10:00 +28°C° 0.1 mm 2 mps 727 mmHg 55%
    11:00 +28°C° 0.5 mm 2 mps 727 mmHg 56%
    12:00 +28°C° 0.5 mm 1 mps 726 mmHg 57%
    13:00 +28°C° 0.5 mm 1 mps 726 mmHg 58%
    14:00 +28°C° 0.5 mm 1 mps 726 mmHg 57%
    15:00 +28°C° 0.5 mm 1 mps 725 mmHg 56%
    16:00 +28°C° 0.5 mm 1 mps 725 mmHg 56%
    17:00 +27°C° 0.1 mm 1 mps 725 mmHg 59%
    18:00 +26°C° 0.1 mm 1 mps 725 mmHg 63%
    19:00 +25°C° 0.1 mm 1 mps 725 mmHg 66%
    20:00 +23°C° 0 mm 1 mps 725 mmHg 67%
    21:00 +21°C° 0 mm 2 mps 725 mmHg 68%
    22:00 +20°C° 0 mm 2 mps 726 mmHg 70%
    23:00 +19°C° 0 mm 2 mps 726 mmHg 71%
    Show more